Content
SEND FEEDBACK

Daily
Averages
Monthly
Summary
United States of America

CALHOUN, KENTUCKY


Home > North America > United States > Kentucky
Elevation: 38 feet     Latitude: 37 32N     Longitude: 087 16W

WEATHER
 
SELECT A DAY
Number of Records: 76,595;   Date Range: 10/21/11 - 12/20/14
 
SHARE

PRINT THIS DATA

[ ← Previous Day ]
WEATHER ALMANAC - JANUARY 31, 2013
[ Next Day → ]
[ °C ]   °F
Weather ElementAverageHighLow
Temperature33.9 °F41.4 °F (2:35 pm)22.3 °F (11:35 pm)
Dewpoint24.1 °F33.8 °F (6:55 pm)12.9 °F (11:15 pm)
Humidity68 %93 % (6:55 pm)57 % (3:15 pm)
Barometer30.04 in30.29 in (11:55 pm)29.91 in (12:35 am)
Wind Speed14.7 mph23 mph (6:35 pm)
Wind Gust31.1 mph (7:15 pm)
Weather ElementAverage
Visibility9.7 mi
Wind DirectionWNW (287.6 °)

Weather ElementTotal
Precipitation---
Heating Degree Days33.2 (Base 65)
Averaged from 70 records on January 31, 2013
WEATHER CONDITIONS BREAKOUT
WIND DIRECTION BREAKOUT
WEATHER BY HOUR - JANUARY 31, 2013
[ °C ]   °F
Local TimeTemperatureDewpointHumidityBarometerVisibilityWind DirectionWind SpeedGust SpeedPrecipitationEventsConditions
12:35 AM33.4 °F24.4 °F70 %29.91 in10.0 miNW (310°)13.8 mph23.0 mphOvercast
12:55 AM33.4 °F24.8 °F71 %29.92 in10.0 miWNW (300°)15.0 mph23.0 mphOvercast
1:15 AM33.8 °F25.0 °F70 %29.93 in10.0 miWest (280°)13.8 mph21.9 mphOvercast
1:35 AM33.3 °F23.5 °F68 %29.93 in10.0 miWest (280°)17.3 mph20.7 mphOvercast
1:55 AM33.1 °F22.5 °F65 %29.93 in10.0 miWNW (290°)19.6 mph27.6 mphOvercast
2:15 AM33.1 °F23.2 °F67 %29.93 in10.0 miWNW (300°)16.1 mph23.0 mphOvercast
2:35 AM33.1 °F23.4 °F67 %29.93 in10.0 miWNW (290°)12.7 mph18.4 mphOvercast
2:55 AM32.9 °F24.1 °F70 %29.93 in10.0 miWNW (290°)11.5 mphOvercast
3:15 AM32.9 °F24.3 °F71 %29.94 in10.0 miNW (310°)9.2 mph18.4 mphOvercast
3:35 AM32.4 °F24.1 °F72 %29.95 in10.0 miNW (310°)9.2 mph17.3 mphOvercast
3:55 AM32.0 °F22.6 °F68 %29.96 in10.0 miNW (310°)13.8 mph20.7 mphOvercast
4:15 AM32.0 °F21.7 °F66 %29.96 in10.0 miNW (320°)11.5 mph21.9 mphOvercast
4:35 AM32.0 °F22.1 °F67 %29.96 in10.0 miWNW (290°)9.2 mph19.6 mphOvercast
4:55 AM32.0 °F21.2 °F64 %29.96 in10.0 miWNW (290°)15.0 mph23.0 mphOvercast
5:15 AM32.0 °F21.6 °F65 %29.98 in10.0 miWNW (290°)9.2 mphOvercast
5:35 AM32.0 °F21.9 °F66 %29.98 in10.0 miWNW (290°)12.7 mph17.3 mphOvercast
5:55 AM32.0 °F22.3 °F67 %29.99 in10.0 miWNW (290°)12.7 mph17.3 mphOvercast
6:15 AM32.0 °F22.3 °F67 %30.00 in10.0 miWest (270°)11.5 mphOvercast
6:35 AM32.0 °F22.1 °F67 %30.00 in10.0 miWest (280°)18.4 mphOvercast
6:55 AM32.0 °F21.9 °F66 %30.01 in10.0 miWNW (290°)11.5 mph19.6 mphOvercast
7:15 AM32.0 °F20.8 °F63 %30.01 in10.0 miWNW (300°)10.4 mphOvercast
7:35 AM31.8 °F21.9 °F67 %30.03 in10.0 miWest (280°)10.4 mphMostly Cloudy
7:55 AM32.0 °F22.8 °F69 %30.04 in10.0 miWest (270°)11.5 mphOvercast
8:15 AM32.0 °F22.5 °F68 %30.05 in10.0 miWest (270°)15.0 mph20.7 mphOvercast
8:35 AM32.2 °F22.1 °F66 %30.05 in10.0 miWest (270°)15.0 mph18.4 mphOvercast
8:55 AM32.4 °F22.6 °F67 %30.06 in10.0 miWest (270°)18.4 mph23.0 mphOvercast
9:15 AM32.9 °F23.0 °F67 %30.06 in10.0 miWest (270°)12.7 mph20.7 mphOvercast
9:35 AM33.6 °F23.9 °F68 %30.06 in10.0 miWest (260°)16.1 mphOvercast
9:55 AM33.8 °F24.1 °F68 %30.07 in10.0 miWest (270°)15.0 mph23.0 mphOvercast
10:15 AM34.3 °F24.1 °F66 %30.08 in10.0 miWest (270°)15.0 mph26.5 mphOvercast
10:35 AM34.7 °F24.6 °F67 %30.08 in10.0 miWest (270°)16.1 mph23.0 mphOvercast
10:55 AM35.2 °F25.0 °F66 %30.08 in10.0 miWSW (250°)12.7 mphOvercast
11:15 AM36.5 °F25.2 °F64 %30.07 in10.0 miWest (270°)13.8 mphOvercast
11:35 AM36.7 °F25.2 °F63 %30.06 in10.0 miWSW (250°)18.4 mph21.9 mphOvercast
11:55 AM38.5 °F25.5 °F60 %30.06 in10.0 miWest (260°)19.6 mph24.2 mphMostly Cloudy
12:15 PM39.4 °F26.8 °F61 %30.05 in10.0 miWest (270°)18.4 mph23.0 mphScattered Clouds
12:35 PM39.2 °F26.6 °F61 %30.04 in10.0 miWest (260°)13.8 mphMostly Cloudy
12:55 PM39.6 °F25.9 °F58 %30.04 in10.0 miWest (270°)15.0 mph23.0 mphMostly Cloudy
1:15 PM39.9 °F27.1 °F60 %30.03 in10.0 miWest (280°)12.7 mphScattered Clouds
1:35 PM40.6 °F27.5 °F59 %30.02 in10.0 miWest (270°)15.0 mph21.9 mphScattered Clouds
1:55 PM41.0 °F28.0 °F60 %30.02 in10.0 miWest (260°)16.1 mph20.7 mphScattered Clouds
2:15 PM41.0 °F27.9 °F60 %30.01 in10.0 miWest (260°)13.8 mph20.7 mphMostly Cloudy
2:35 PM41.4 °F27.5 °F58 %30.01 in10.0 miWest (270°)16.1 mphOvercast
2:55 PM41.4 °F27.9 °F59 %30.01 in10.0 miWest (270°)12.7 mphOvercast
3:15 PM41.0 °F26.6 °F57 %30.01 in10.0 miWest (260°)11.5 mph20.7 mphOvercast
3:35 PM41.0 °F27.1 °F58 %30.01 in10.0 miWest (270°)12.7 mphOvercast
3:55 PM40.6 °F27.1 °F59 %30.01 in10.0 miWest (270°)12.7 mphOvercast
4:15 PM40.1 °F27.5 °F61 %30.01 in10.0 miWest (260°)13.8 mph18.4 mphMostly Cloudy
4:55 PM40.1 °F27.9 °F62 %30.01 in10.0 miWest (260°)12.7 mph19.6 mphOvercast
5:15 PM40.3 °F28.0 °F62 %30.02 in10.0 miWest (270°)11.5 mphOvercast
5:35 PM40.1 °F28.6 °F63 %30.01 in10.0 miWest (260°)11.5 mphOvercast
5:55 PM40.1 °F28.6 °F63 %30.01 in10.0 miWest (270°)16.1 mph20.7 mphOvercast
6:15 PM40.3 °F28.9 °F64 %30.02 in10.0 miWest (270°)17.3 mph26.5 mphOvercast
6:35 PM38.8 °F31.8 °F76 %30.04 in10.0 miWNW (300°)23.0 mph29.9 mphRainLight Rain
6:55 PM35.6 °F33.8 °F93 %30.05 in3.0 miWNW (290°)13.8 mph21.9 mphSnowLight Snow
7:15 PM34.3 °F32.0 °F91 %30.06 in1.2 miWNW (300°)20.7 mph31.1 mphSnowLight Snow
7:35 PM34.3 °F32.0 °F91 %30.06 in7.0 miWNW (290°)17.3 mph24.2 mphSnowLight Snow
7:55 PM34.5 °F31.8 °F90 %30.09 in10.0 miWNW (300°)20.7 mph24.2 mphSnowLight Snow
8:15 PM30.4 °F25.7 °F83 %30.12 in10.0 miNNW (330°)19.6 mph31.1 mphOvercast
8:35 PM29.7 °F24.8 °F82 %30.14 in10.0 miNNW (330°)11.5 mph24.2 mphOvercast
8:55 PM28.4 °F24.1 °F84 %30.16 in10.0 miNNW (340°)19.6 mph28.8 mphOvercast
9:15 PM27.5 °F23.0 °F83 %30.18 in10.0 miNNW (330°)18.4 mph31.1 mphOvercast
9:35 PM26.6 °F19.4 °F74 %30.19 in10.0 miNW (320°)17.3 mph31.1 mphOvercast
9:55 PM25.7 °F18.3 °F74 %30.21 in10.0 miNW (320°)11.5 mph21.9 mphMostly Cloudy
10:15 PM24.8 °F16.3 °F70 %30.22 in10.0 miNNW (330°)11.5 mph27.6 mphScattered Clouds
10:35 PM23.7 °F14.2 °F67 %30.23 in10.0 miNNW (330°)19.6 mph29.9 mphClear
10:55 PM23.0 °F13.1 °F66 %30.25 in10.0 miNNW (330°)19.6 mph29.9 mphClear
11:15 PM22.5 °F12.9 °F67 %30.26 in10.0 miNW (320°)17.3 mph24.2 mphClear
11:35 PM22.3 °F13.3 °F68 %30.28 in10.0 miNW (320°)13.8 mph19.6 mphMostly Cloudy
11:55 PM22.5 °F14.2 °F71 %30.29 in10.0 miNNW (340°)13.8 mph21.9 mphOvercast
Hourly data recorded from K2I0, located miles away from Calhoun, Kentucky







STORIES FROM OUR PARTNERS